logo
App data

East Tower - Takashi

This is the Dream World, the place where anything you wish will come true. Your current partner in the East Tower looks somehow familiar. Have you by any chance met him in your past?
Store | Hub | SteamDB | Site
Developer: roseVeRte Publisher: roseVeRte
Genre: Adventure, Casual, Indie, Simulation
Languages: English, German, Japanese, French
Tags: Indie (23), Adventure (23), Simulation (22), Casual (22), Visual Novel (19), Otome (14)
Category: Single-player, Steam Achievements, Steam Trading Cards, Steam Cloud
Release date: Nov 27, 2012
Price: $5.99
Owners: 0 .. 20,000
Followers: 159
Playtime total: 04:03 (average) 03:31 (median)

Steam Spy is still in beta, so expect major bugs.

Owners data:

Access restricted.

This feature is only available to users with special access rights. Sorry.

If you want to proceed, you need to register or log in first and then back Steam Spy on Patreon. Look for Indie or Pro pledge.

Don't forget to use the same email as on Steam Spy!

Audience in 2 weeks:

Access restricted.

This feature is only available to users with special access rights. Sorry.

If you want to proceed, you need to register or log in first and then back Steam Spy on Patreon. Look for Indie or Pro pledge.

Don't forget to use the same email as on Steam Spy!

Peak daily concurrent players:

CCU data courtesy of SteamDB. Used with permission.

Hourly concurrent players:

YouTube:

The views data is based on top 50 videos uploaded last week. Actual number of views might be more than the number shown.

The displayed number of videos uploaded yesterday is limited to 50, so if there were more videos uploaded, the number will still show 50.

If the game has commonly used word as its name (like "FEAR" or "Volume") its number of Youtube views might be wrong.

Games similar to this one:

# Game Release date
Price
Score rank
(Userscore / Metascore)
Owners
Players
Playtime (Median)
1 Buried: An Interactive Story Jan 21, 2016 $2.9995% (96%)0 .. 20,0000%00:00 (00:00)
2 Highrise Heroes: Word Challenge Jan 8, 2016 $4.9993% (95%)0 .. 20,0000%00:00 (00:00)
3 Rusty Lake Hotel Jan 29, 2016 $1.9987% (93%/65%)50,000 .. 100,0002.4%04:17 (04:17)
4 Dark Echo May 11, 2015 $2.9984% (92%)20,000 .. 50,0001.47%00:43 (00:14)
5 FLAMBERGE ||| SIMULTANEOUS TACTICS Mar 25, 2015 $9.9980% (91%)0 .. 20,0000%00:00 (00:00)
6 199X Dec 11, 2014 $1.9977% (90%)0 .. 20,0000%00:00 (00:00)
7 Silver Creek Falls: Chapter 2 Sep 30, 2015 $4.99N/A (N/A)0 .. 20,0000%00:00 (00:00)
8 School of Talent: SUZU-ROUTE Feb 23, 2017 $8.9969% (87%)0 .. 20,0000%00:00 (00:00)
9 Mr. Pumpkin Adventure Jul 1, 2016 $3.9969% (87%)0 .. 20,0000%00:00 (00:00)
10 Stories Untold Feb 27, 2017 $9.9969% (87%/81%)100,000 .. 200,0000%00:00 (00:00)
11 Night Shift Feb 23, 2015 $4.9963% (85%)0 .. 20,0000%00:00 (00:00)
12 Reflection of Mine Feb 24, 2017 $7.9958% (83%)0 .. 20,0000%00:00 (00:00)
13 Serafina's Crown May 26, 2015 $7.99N/A (N/A)20,000 .. 50,0000%00:00 (00:00)
14 Breathing Fear Oct 7, 2016 $0.556% (82%)20,000 .. 50,0001.52%00:03 (00:01)
15 Dead Secret Mar 28, 2016 $14.9952% (80%)20,000 .. 50,0000%00:00 (00:00)
16 The Narrator Is a DICK Jun 14, 2016 $4.9949% (79%)0 .. 20,00011.11%00:59 (00:19)
17 The Rivers of Alice - Extended Version Nov 16, 2015 $7.9948% (78%)0 .. 20,0000%00:00 (00:00)
18 Shutter Apr 2, 2015 $1.9946% (77%)20,000 .. 50,0000%00:00 (00:00)
19 samurai_jazz Jan 27, 2015 $0.9940% (74%)0 .. 20,0000%00:00 (00:00)
20 Blueberry Garden Jun 2009 $4.9940% (74%/68%)20,000 .. 50,0000%00:00 (00:00)
21 Shadow Puppeteer Sep 29, 2014 $3.7440% (74%/57%)50,000 .. 100,0000%00:00 (00:00)
22 A Detective's Novel Jul 28, 2016 $0.49N/A (N/A)200,000 .. 500,0001.57%04:03 (04:22)
23 Scrap Garden May 6, 2016 $9.9937% (72%/58%)100,000 .. 200,0000%00:00 (00:00)
24 Unearthed Inc: The Lost Temple Dec 16, 2016 N/AN/A (N/A)0 .. 20,0000%00:00 (00:00)
25 Planetship Feb 6, 2015 $8.9933% (70%)0 .. 20,0000%00:00 (00:00)
26 City Quest Aug 20, 2015 $1.99N/A (N/A)0 .. 20,0000%00:00 (00:00)
27 You Deserve Aug 19, 2016 $0.9931% (69%)20,000 .. 50,0000%00:00 (00:00)
28 The Adventures of Fatman Oct 1, 2015 $1.99N/A (N/A)0 .. 20,0000%00:00 (00:00)
29 CRIMSON ROOM DECADE Jun 10, 2016 $9.99N/A (N/A)0 .. 20,0000%00:00 (00:00)
30 Draw Slasher Oct 13, 2016 $4.9930% (68%)0 .. 20,0000%00:00 (00:00)
31 Pneuma: Breath of Life Feb 27, 2015 $19.9930% (68%/63%)0 .. 20,0000%00:00 (00:00)
32 Hamilton's Great Adventure May 31, 2011 $9.9928% (67%/77%)100,000 .. 200,0000.65%02:04 (00:41)
33 Enola Sep 18, 2014 $14.9926% (65%)20,000 .. 50,0000%00:00 (00:00)
34 The Butterfly Sign Dec 13, 2016 $4.9922% (62%)200,000 .. 500,0000%00:00 (00:00)
35 Catmouth Island Dec 31, 2014 $0.9921% (61%)20,000 .. 50,0000%00:00 (00:00)
36 Maria the Witch Mar 1, 2016 $4.9920% (60%)0 .. 20,0000%00:00 (00:00)
37 ENKI Jul 31, 2015 $4.9917% (58%/43%)20,000 .. 50,0000%00:00 (00:00)
38 Space Incident Sep 23, 2016 $3.9917% (58%)100,000 .. 200,0000.17%02:24 (00:48)
39 Sideway New York Nov 15, 2011 $9.99N/A (N/A/71%)50,000 .. 100,0000%00:00 (00:00)
40 Little Jack's Adventures Dec 28, 2016 $0.99N/A (N/A)50,000 .. 100,0000%00:00 (00:00)
41 Rock Zombie Nov 20, 2014 $6.99N/A (N/A)0 .. 20,0000%00:00 (00:00)
42 Alchemist Dec 29, 2016 $2.9914% (54%)20,000 .. 50,0000%00:00 (00:00)
43 Not without my donuts Apr 28, 2015 $3.99N/A (N/A)20,000 .. 50,0000%00:00 (00:00)
44 Penumbra: Requiem N/A12% (51%/67%)0 .. 20,0000.22%02:27 (00:49)
45 Last Inua Dec 11, 2014 $7.9911% (49%)20,000 .. 50,0000%00:00 (00:00)
46 Shattered Haven Mar 18, 2013 $9.999% (45%/59%)50,000 .. 100,0000%00:00 (00:00)
47 Lex Mortis Feb 9, 2015 $4.997% (42%)200,000 .. 500,0000%00:00 (00:00)
48 'n Verlore Verstand Feb 1, 2016 $14.997% (41%)20,000 .. 50,0000%00:00 (00:00)
49 Krampus Oct 18, 2016 $4.997% (40%)100,000 .. 200,0000.24%08:50 (02:56)
50 Magdalena Feb 22, 2016 $2.995% (35%)200,000 .. 500,0000%00:00 (00:00)
51 Bibou Apr 29, 2016 $0.794% (34%)200,000 .. 500,0000%00:00 (00:00)
52 Time Of Silence Dec 6, 2016 $0.993% (30%)100,000 .. 200,0000%00:00 (00:00)
53 Worst Case Z Apr 15, 2016 $12.99N/A (N/A)0 .. 20,0000%00:00 (00:00)
54 Tesla Breaks the World! Nov 26, 2014 $9.99N/A (N/A)0 .. 20,0000%00:00 (00:00)
55 Ball of Light Dec 9, 2016 $3.992% (20%)200,000 .. 500,0000.23%150:18 (100:11)
56 Lone Leader Oct 28, 2016 $0.992% (20%)200,000 .. 500,0000%00:00 (00:00)
57 The Spirit Underneath Jan 2, 2017 $0.992% (16%)200,000 .. 500,0000%00:00 (00:00)
58 Incognito Dec 9, 2009 $7.99N/A (N/A)0 .. 20,0000%00:00 (00:00)
59 Replay - VHS is not dead Jul 9, 2015 $9.99N/A (N/A)0 .. 20,0000%00:00 (00:00)
60 Haywire on Fuel Station Zeta Sep 24, 2015 $3.99N/A (N/A)20,000 .. 50,0000%00:00 (00:00)
61 Pillar May 29, 2015 $7.99N/A (N/A)20,000 .. 50,0000%00:00 (00:00)
62 Chowderchu Jan 4, 2016 $2.99N/A (N/A)0 .. 20,0004.04%03:48 (05:06)
63 Yasai Ninja Jul 21, 2015 $1.99N/A (N/A)0 .. 20,0000%00:00 (00:00)
64 Dungeon Lurk II - Leona Oct 27, 2014 $9.99N/A (N/A)0 .. 20,0000%00:00 (00:00)

Tags over time:

Access restricted.

This feature is only available to users with special access rights. Sorry.

If you want to proceed, you need to register or log in first and then back Steam Spy on Patreon. Look for Indie or Pro pledge.

Don't forget to use the same email as on Steam Spy!

Owners of this game also own:

Access restricted.

This feature is only available to users with special access rights. Sorry.

If you want to proceed, you need to register or log in first and then back Steam Spy on Patreon. Look for Indie or Pro pledge.

Don't forget to use the same email as on Steam Spy!

Playtime distribution:

Access restricted.

This feature is only available to users with special access rights. Sorry.

If you want to proceed, you need to register or log in first and then back Steam Spy on Patreon. Look for Indie or Pro pledge.

Don't forget to use the same email as on Steam Spy!

Playtime (2 weeks):

Access restricted.

This feature is only available to users with special access rights. Sorry.

If you want to proceed, you need to register or log in first and then back Steam Spy on Patreon. Look for Indie or Pro pledge.

Don't forget to use the same email as on Steam Spy!

User reviews:

Login required.

Please register or log in to see this information.